| time (UTC) | temp F | wind direction | speed knots | gust knots | rain 1hr in | rain 24hr in | rain mn in | humidity % | barometer mb |
| 20260504081541 | 56 | 258 | 5.2 | 9.6 | 0.00 | 0.00 | 0.00 | 36 | 1016.4 |
| 20260504080104 | 56 | 220 | 4.3 | 7.8 | 0.00 | 0.00 | 0.00 | 38 | 1016.3 |
| 20260504044605 | 56 | 202 | 5.2 | 12.2 | 0.00 | 0.00 | 0.00 | 38 | 1016.8 |
| 20260504043033 | 56 | 205 | 7.0 | 10.4 | 0.00 | 0.00 | 0.00 | 38 | 1016.8 |
| 20260504041552 | 54 | 214 | 6.1 | 10.4 | 0.00 | 0.00 | 0.00 | 39 | 1016.8 |
| 20260504034520 | 56 | 217 | 6.1 | 9.6 | 0.00 | 0.00 | 0.00 | 35 | 1016.7 |
| 20260504033042 | 57 | 219 | 6.1 | 11.3 | 0.00 | 0.00 | 0.00 | 34 | 1016.6 |
| 20260504031603 | 57 | 229 | 7.8 | 13.0 | 0.00 | 0.00 | 0.00 | 34 | 1016.6 |
| 20260504030040 | 56 | 250 | 6.1 | 12.2 | 0.00 | 0.00 | 0.00 | 34 | 1016.6 |
| 20260504024551 | 57 | 222 | 3.5 | 9.6 | 0.00 | 0.00 | 0.00 | 35 | 1016.7 |
| 20260504023010 | 57 | 201 | 7.8 | 13.0 | 0.00 | 0.00 | 0.00 | 34 | 1016.6 |
| 20260504021539 | 57 | 196 | 7.0 | 13.0 | 0.00 | 0.00 | 0.00 | 34 | 1016.5 |
| 20260504020055 | 56 | 222 | 6.1 | 12.2 | 0.00 | 0.00 | 0.00 | 36 | 1016.4 |
| 20260504014526 | 55 | 219 | 6.1 | 10.4 | 0.00 | 0.00 | 0.00 | 38 | 1016.3 |
| 20260504013052 | 55 | 205 | 4.3 | 8.7 | 0.00 | 0.00 | 0.00 | 40 | 1016.2 |
| 20260504011516 | 55 | 204 | 4.3 | 8.7 | 0.00 | 0.00 | 0.00 | 39 | 1016.1 |
| 20260504010045 | 56 | 173 | 5.2 | 8.7 | 0.00 | 0.00 | 0.00 | 39 | 1016.1 |
| 20260504004502 | 56 | 193 | 5.2 | 9.6 | 0.00 | 0.00 | 0.00 | 38 | 1016.1 |
| 20260504003045 | 56 | 191 | 5.2 | 9.6 | 0.00 | 0.00 | 0.00 | 39 | 1015.9 |
| 20260504001625 | 56 | 164 | 4.3 | 10.4 | 0.00 | 0.00 | 0.00 | 39 | 1016.0 |
| 20260504000029 | 56 | 161 | 4.3 | 8.7 | 0.00 | 0.00 | 0.00 | 39 | 1016.0 |
| 20260503234558 | 57 | 172 | 3.5 | 7.8 | 0.00 | 0.00 | 0.00 | 39 | 1015.8 |
| 20260503233034 | 57 | 123 | 4.3 | 8.7 | 0.00 | 0.00 | 0.00 | 38 | 1015.8 |
| 20260503231550 | 58 | 163 | 2.6 | 6.1 | 0.00 | 0.00 | 0.00 | 37 | 1015.6 |
| 20260503230013 | 60 | 165 | 1.7 | 4.3 | 0.00 | 0.00 | 0.00 | 35 | 1015.7 |
| 20260503224554 | 60 | 165 | 1.7 | 6.1 | 0.00 | 0.00 | 0.00 | 35 | 1015.8 |
| 20260503223004 | 60 | 206 | 2.6 | 9.6 | 0.00 | 0.00 | 0.00 | 33 | 1015.7 |
| 20260503221527 | 61 | 240 | 4.3 | 9.6 | 0.00 | 0.00 | 0.00 | 33 | 1015.8 |
| 20260503220103 | 60 | 257 | 3.5 | 11.3 | 0.00 | 0.00 | 0.00 | 33 | 1015.9 |
| 20260503214530 | 60 | 245 | 1.7 | 5.2 | 0.00 | 0.00 | 0.00 | 35 | 1016.0 |
| 20260503213056 | 60 | 259 | 0.9 | 9.6 | 0.00 | 0.00 | 0.00 | 32 | 1015.8 |
| 20260503211504 | 60 | 231 | 2.6 | 11.3 | 0.00 | 0.00 | 0.00 | 35 | 1015.8 |
| 20260503210038 | 60 | 212 | 4.3 | 9.6 | 0.00 | 0.00 | 0.00 | 35 | 1016.0 |
| 20260503204505 | 59 | 304 | 2.6 | 14.8 | 0.00 | 0.00 | 0.00 | 36 | 1015.9 |
| 20260503203036 | 58 | 246 | 6.1 | 13.0 | 0.00 | 0.00 | 0.00 | 34 | 1016.1 |
| 20260503201558 | 58 | 279 | 7.0 | 13.9 | 0.00 | 0.00 | 0.00 | 35 | 1016.4 |
| 20260503200028 | 58 | 294 | 5.2 | 13.0 | 0.00 | 0.00 | 0.00 | 35 | 1016.6 |
| 20260503194544 | 57 | 206 | 7.0 | 11.3 | 0.00 | 0.00 | 0.00 | 36 | 1016.6 |
| 20260503193019 | 57 | 186 | 7.0 | 12.2 | 0.00 | 0.00 | 0.00 | 37 | 1016.9 |
| 20260503191539 | 56 | 323 | 6.1 | 14.8 | 0.00 | 0.00 | 0.00 | 38 | 1017.1 |
| 20260503190100 | 56 | 287 | 9.6 | 16.5 | 0.00 | 0.00 | 0.00 | 37 | 1017.3 |
| 20260503184532 | 55 | 294 | 3.5 | 13.0 | 0.00 | 0.00 | 0.00 | 40 | 1017.5 |
| 20260503183057 | 54 | 234 | 7.0 | 11.3 | 0.00 | 0.00 | 0.00 | 40 | 1017.8 |
| 20260503181523 | 54 | 235 | 6.1 | 9.6 | 0.00 | 0.00 | 0.00 | 42 | 1017.8 |
| 20260503180048 | 53 | 330 | 7.8 | 13.0 | 0.00 | 0.00 | 0.00 | 40 | 1017.9 |
| 20260503174501 | 54 | 263 | 6.1 | 12.2 | 0.00 | 0.00 | 0.00 | 42 | 1018.2 |
| 20260503173035 | 53 | 290 | 6.1 | 12.2 | 0.00 | 0.00 | 0.00 | 43 | 1018.2 |
| 20260503171501 | 52 | 294 | 4.3 | 13.0 | 0.00 | 0.00 | 0.00 | 44 | 1018.2 |